Location: New York
(40.7127°N, 74.0060°W)
Time: 17:42:15
(UTC-04:00)

UNISAT 6 - Pass Details

Date: 24 April 2024
Orbit: 593 x 667 km, 97.7° (Epoch: 27 May)

Event Time Altitude Azimuth Distance (km) Brightness Sun altitude
Rises 03:38:49 0° 122° (ESE) 2,923 ? -24.1°
Reaches altitude 10° 03:41:51 10° 100° (E) 2,004 ? -23.7°
Maximum altitude 03:44:19 15° 65° (ENE) 1,681 ? -23.4°
Drops below altitude 10° 03:46:47 10° 30° (NNE) 1,985 ? -23.0°
Sets 03:49:44 0° 7° (N) 2,881 ? -22.6°
